Location: Newark
(27.9675°N, 86.8869°E)
Time: 03:17:15
(UTC+00:00)

Explorer 7 - Visible Passes

Search period start: 23 October 2019 00:00
Search period end: 02 November 2019 00:00
Orbit: 485 x 680 km, 50.3° (Epoch: 22 October)

Date Brightness Start Highest point End Pass type
(mag) Time Alt. Az. Time Alt. Az. Time Alt. Az.
23 Oct 8.7 12:13:43 10° WNW 12:17:23 32° SW 12:21:17 10° SSE visible
24 Oct 9.8 12:19:32 10° W 12:22:16 17° SW 12:25:08 10° S visible
29 Oct 9.8 23:19:52 10° SSE 23:22:17 15° SE 23:24:36 10° E visible
30 Oct 8.9 23:23:30 10° S 23:27:08 28° SE 23:30:36 10° ENE visible
31 Oct 7.5 23:27:54 10° SSW 23:32:02 56° SE 23:35:57 10° NE visible
01 Nov 6.7 23:32:46 10° SW 23:36:59 74° NW 23:40:58 10° NE visible
